Tetonia, ID

12:01 PM MDT on September 28, 2016 (GMT -0600)
Driggs

Weather History for KDIJ - September, 2013

Change the Weather History Date:

Saturday, September 21, 2013

  Actual Average (KRXE) Record (KRXE)
Temperature  
Mean Temperature 58 °F 54 °F  
Max Temperature 74 °F 69 °F 82 °F (2001)
Min Temperature 41 °F 38 °F 30 °F (2004)
Degree Days  
Heating Degree Days 8 12  
Month to date heating degree days 165  
Since 1 July heating degree days 238  
Cooling Degree Days 0 0  
Month to date cooling degree days 5  
Year to date cooling degree days 207  
Growing Degree Days 8 (Base 50)    
Moisture  
Dew Point 32 °F    
Average Humidity 39    
Maximum Humidity 76    
Minimum Humidity 18    
Precipitation  
Precipitation 0.00 in 0.04 in 1.03 in (2006)
Month to date precipitation 0.63  
Year to date precipitation 9.55  
Sea Level Pressure  
Sea Level Pressure 29.66 in    
Wind  
Wind Speed 7 mph (South)    
Max Wind Speed 20 mph    
Max Gust Speed 25 mph    
Visibility 9 miles    
Events      
T = Trace of Precipitation, MM = Missing Value Source: NWS Daily Summary

Daily Weather History Graph

Daily Weather History Graph

Search for Another Location

Airport or City:

Trip Planner

Search our weather history database for the weather conditions in past years. The results will help you decide how hot, cold, wet, or windy it might be!

Date:

Astronomy

Sep. 21, 2013 Rise Set
Actual Time 7:10 AM MDT 7:23 PM MDT
Civil Twilight 6:42 AM MDT 7:51 PM MDT
Nautical Twilight 6:08 AM MDT 8:25 PM MDT
Astronomical Twilight 5:33 AM MDT 8:59 PM MDT
Moon 8:29 PM MDT (9/21) 9:39 AM MDT (9/21)
Length of Visible Light 13h 09m
Length of Day
12h 12m
Waning Gibbous, 94% of the Moon is Illuminated
Sep 21
Waning Gibbous
Sep 26
Last Quarter
Oct 4
New
Oct 11
First Quarter
Oct 18
Full

Hourly Weather History & Observations

Time (MDT) Temp. Windchill Dew Point Humidity Pressure Visibility Wind Dir Wind Speed Gust Speed Precip Events Conditions
12:56 AM 41.0 °F - 34.0 °F 76% 29.81 in 10.0 mi Calm Calm - N/A   Clear
1:56 AM 43.0 °F 41.3 °F 34.0 °F 71% 29.78 in 10.0 mi ESE 3.5 mph - N/A   Clear
2:56 AM 50.9 °F - 31.1 °F 47% 29.73 in 10.0 mi SSE 4.6 mph - N/A   Clear
3:56 AM 50.0 °F - 31.1 °F 48% 29.73 in 10.0 mi South 4.6 mph - N/A   Clear
4:56 AM 46.9 °F - 32.9 °F 58% 29.74 in 10.0 mi SE 5.8 mph - N/A   Clear
5:56 AM 52.9 °F - 31.1 °F 43% 29.71 in 10.0 mi South 6.9 mph - N/A   Clear
6:56 AM 50.9 °F - 32.0 °F 48% 29.73 in 10.0 mi South 9.2 mph - N/A   Clear
7:56 AM 52.0 °F - 34.0 °F 50% 29.77 in 9.0 mi SSE 6.9 mph - N/A   Clear
8:56 AM 61.0 °F - 34.9 °F 38% 29.77 in 8.0 mi South 6.9 mph - N/A   Clear
9:56 AM 68.0 °F - 32.0 °F 26% 29.75 in 9.0 mi South 11.5 mph - N/A   Clear
10:56 AM 70.0 °F - 31.1 °F 24% 29.72 in 9.0 mi South 18.4 mph 24.2 mph N/A   Clear
11:56 AM 72.0 °F - 31.1 °F 22% 29.72 in 8.0 mi SSW 19.6 mph 25.3 mph N/A   Clear
12:56 PM 70.0 °F - 31.1 °F 24% 29.72 in 10.0 mi SSW 11.5 mph - N/A   Partly Cloudy
1:56 PM 73.9 °F - 30.0 °F 20% 29.67 in 8.0 mi South 18.4 mph 25.3 mph N/A   Partly Cloudy
2:56 PM 74.8 °F - 28.0 °F 18% 29.62 in 9.0 mi SW 18.4 mph - N/A   Clear
3:56 PM 73.9 °F - 27.1 °F 18% 29.60 in 9.0 mi SSW 13.8 mph 23.0 mph N/A   Clear
4:56 PM 73.9 °F - 27.1 °F 18% 29.58 in 9.0 mi South 13.8 mph - N/A   Clear
5:56 PM 72.0 °F - 29.1 °F 20% 29.55 in 9.0 mi SW 9.2 mph - N/A   Clear
6:56 PM 65.8 °F - 32.0 °F 28% 29.57 in 8.0 mi SSW 8.1 mph - N/A   Clear
7:56 PM 59.0 °F - 32.0 °F 36% 29.58 in 9.0 mi ESE 6.9 mph - N/A   Scattered Clouds
8:56 PM 54.9 °F - 34.9 °F 47% 29.57 in 10.0 mi East 10.4 mph - N/A   Mostly Cloudy
9:56 PM 54.9 °F - 34.9 °F 47% 29.52 in 10.0 mi ENE 9.2 mph - N/A   Mostly Cloudy
10:56 PM 52.9 °F - 36.0 °F 53% 29.50 in 9.0 mi Calm Calm - N/A   Partly Cloudy
11:56 PM 52.9 °F - 36.0 °F 53% 29.48 in 10.0 mi NNW 3.5 mph - N/A   Mostly Cloudy